Weather in Petrikovo

Russia / Mari El Republic     56°44′18″N   48°13′22″E
temp.,
°C
wind,
m/s
gust,
m/s
humid.,
%
clouds,
%
prec.,
mm/h
press.,
hPa
HPBL,
m
5 march, fri
fri500:00−10wnw469775 0.0 99794
03:00−13nw349675 0.0 99937
06:00−15nw229419 0.0 100020
09:00−12wnw129110 0.0 100295
12:00−7w349158 0.0 1003390
15:00−5w468879 0.1 1004775
18:00−9w349387 0.1 100564
21:00−11wsw349544 0.1 100868
6 march, sat
sat600:00−12wnw239786 0.1 100828
03:00−14nnw229690 0.1 101020
06:00−15nw3495100 0.2 101182
09:00−13wnw3694100 0.3 1013329
12:00−11w3588100 0.0 1014587
15:00−10w3586100 0.1 1013715
18:00−12w2295100 0.1 101320
21:00−16wsw229788 0.1 101320
7 march, sun
sun700:00−17sw239972 0.0 101220
03:00−17sw239884 0.1 101127
06:00−19sw2310095 0.1 101121
09:00−16ssw349796 0.1 1010154
12:00−10s469187 0.0 1008427
15:00−8s588789 0.0 1005632
18:00−10sse61392100 0.0 1003556
21:00−8sse61394100 0.4 1000674
8 march, mon
mon800:00−7sse71394100 0.9 995740
03:00−7sse71394100 1.8 992743
06:00−7sw51092100 0.8 990605
09:00−7ssw61091100 1.0 991837
12:00−7sw71192100 0.4 992869
15:00−6sw6994100 1.7 993837
18:00−8sw4995100 0.8 994321
21:00−8wsw3796100 1.1 995208
9 march, tue
tue900:00−12nw349798 0.1 99763
03:00−13nw359698 0.3 999128
06:00−14nw379698 0.3 1002195
09:00−14nw469496 0.3 1004389
12:00−12nw4690100 0.1 1007553
15:00−11nw4689100 0.2 1009743
18:00−13nw359697 0.1 1009128
21:00−14nw359798 0.3 1011116